Lapse_Rate
8.4 8.7 8.9 9.1 9.1 9.2 8.5 7.8 6.8 6.6 6.3 6.3 6.9 8.1 8.8 7.4 7.4 6.4 5.7 5.3 5.3 5.1 5.1 5.8 6.9 7.6 8.9 9.3 9.6 9.7 9.6 9.6 9.8 9.5 9.5 9.0 7.4 8.7 9.5 9.4 9.2 9.1 8.8
8.2 8.5 8.7 9.0 8.9 9.0 8.5 8.4 7.1 6.8 6.5 7.2 7.5 6.9 6.8 6.8 6.2 5.7 6.0 5.9 5.6 5.3 5.6 6.4 7.2 8.0 9.1 9.1 9.6 9.6 9.5 9.6 9.7 9.1 9.1 8.1 7.1 8.7 7.6 7.3 8.9 9.1 9.4
7.9 8.1 8.5 8.9 8.9 8.9 8.7 8.2 8.0 7.4 6.7 6.5 5.7 5.7 6.1 6.3 7.7 7.4 6.1 5.6 5.1 5.0 5.4 5.7 6.5 7.1 8.2 8.8 9.4 9.6 9.3 9.2 9.5 9.4 8.8 7.9 7.4 8.2 8.7 8.0 8.6 8.4 7.8
8.0 8.3 8.5 8.7 8.9 9.0 9.0 8.7 8.5 7.4 6.8 5.9 6.2 6.1 6.4 6.2 6.8 6.0 5.7 5.5 5.4 5.3 5.7 6.0 6.5 6.8 7.6 8.7 9.2 9.8 9.6 9.5 9.1 9.7 9.5 9.2 8.9 7.9 7.6 8.8 9.3 8.8 8.8
7.9 8.2 8.3 8.7 9.0 9.1 8.8 8.6 8.8 7.4 6.2 5.3 6.2 5.9 6.0 6.3 6.1 6.1 6.0 6.3 6.4 6.5 6.8 7.0 6.9 7.4 8.4 8.9 9.5 9.7 9.6 9.7 9.4 9.4 9.4 8.9 8.9 8.7 7.8 7.5 8.4 8.8 9.7
7.9 8.2 8.4 8.8 9.0 9.1 8.9 8.5 8.5 6.9 5.9 5.3 5.2 5.5 5.4 5.4 5.5 5.8 5.7 6.3 6.7 7.2 7.6 7.8 7.8 8.1 9.1 9.5 9.6 9.6 9.7 9.7 9.7 9.6 9.5 9.0 8.5 8.2 8.1 7.8 8.1 8.4 9.1
7.9 8.1 8.2 8.7 8.9 8.8 8.8 8.4 8.1 6.7 6.0 5.9 5.4 5.2 5.0 5.0 5.1 5.5 5.9 6.1 6.7 7.4 7.5 7.9 8.1 8.9 9.4 9.5 9.7 9.8 9.8 9.7 9.6 9.6 9.5 9.5 9.1 8.8 8.4 8.1 8.0 8.2 8.8
7.9 8.1 8.3 8.6 8.7 8.7 8.7 8.6 7.9 6.9 6.3 6.1 5.4 5.2 5.1 4.9 5.0 5.5 5.9 5.9 7.0 7.8 8.1 8.3 8.1 8.6 9.3 9.6 9.9 9.9 9.8 9.8 9.5 9.6 9.5 9.4 9.4 9.3 8.9 8.0 7.8 7.6 8.3
7.8 7.9 8.3 8.6 8.7 8.8 8.8 8.5 8.1 7.5 6.5 6.0 5.4 5.4 5.3 5.0 5.2 5.2 5.6 6.3 7.4 8.1 8.1 7.4 7.9 8.9 9.5 9.9 9.9 9.9 9.8 9.8 9.7 9.6 9.6 9.5 9.6 9.3 8.9 8.5 8.3 7.8 7.3
7.8 8.0 8.3 8.5 8.7 8.8 8.9 8.9 8.3 6.8 5.8 5.4 5.4 5.2 5.0 5.0 5.0 5.2 5.8 6.6 6.9 7.4 6.8 7.3 8.1 9.1 9.6 9.8 9.8 9.7 9.8 9.8 9.7 9.9 9.7 9.6 9.5 9.4 8.6 8.2 8.6 8.1 7.7
7.7 8.0 8.3 8.5 8.6 8.7 8.5 7.6 7.4 6.1 5.3 5.2 4.9 4.6 4.9 4.8 5.0 5.4 6.2 6.7 6.7 6.7 6.7 7.2 8.5 9.2 9.4 9.6 9.7 9.7 9.8 9.6 9.6 9.5 9.3 9.3 9.3 9.0 8.9 8.7 8.5 8.4 8.2
7.8 8.1 8.3 8.3 8.3 7.9 7.3 6.4 6.3 5.8 5.5 4.6 4.5 4.3 4.5 5.0 5.3 5.9 6.0 6.2 5.9 6.1 6.8 7.2 8.4 8.7 9.3 9.5 9.5 9.6 9.6 9.4 9.3 9.3 9.2 9.0 9.4 8.9 8.8 8.6 8.3 8.3 8.4
7.8 8.0 8.1 8.2 8.3 8.0 7.3 6.8 6.1 5.4 4.5 4.1 4.1 4.3 4.9 5.1 5.4 5.4 5.4 5.4 5.6 6.0 6.4 7.3 8.3 7.9 8.6 9.2 9.5 9.6 9.5 9.4 9.3 9.3 9.2 9.1 9.0 8.6 8.6 8.7 8.3 8.4 8.8
7.7 7.9 8.1 8.2 8.4 8.0 7.5 6.7 5.7 4.8 4.0 3.6 3.9 4.4 4.9 4.9 4.9 4.9 4.8 5.1 5.7 5.9 6.4 7.1 7.4 7.5 8.6 8.9 9.3 9.5 9.3 9.1 9.0 9.1 9.0 8.9 8.8 8.7 8.5 8.7 8.5 8.7 8.2
7.6 7.8 8.0 8.1 8.3 8.0 7.3 6.9 4.9 4.0 3.8 3.7 4.2 4.6 4.5 4.5 4.7 4.7 4.8 5.1 5.3 6.0 7.1 6.8 7.0 7.7 8.3 9.1 9.3 8.7 8.0 8.2 8.3 8.6 8.8 8.9 9.0 9.0 9.0 8.7 7.8 8.2 7.7
7.7 7.9 8.0 8.1 8.2 7.4 6.5 5.3 4.1 3.7 3.7 4.0 4.2 4.2 4.2 4.5 4.6 4.6 4.7 4.8 5.4 6.5 6.9 6.5 7.3 7.6 8.2 9.2 9.3 8.8 7.5 7.9 8.3 8.4 8.8 9.2 9.1 9.1 9.3 9.2 9.0 8.3 7.3
7.7 7.9 8.0 8.1 8.1 7.5 5.6 4.7 4.0 3.6 3.8 4.0 4.1 4.1 4.2 4.3 4.5 4.6 4.7 5.1 5.8 6.4 6.4 6.9 7.7 7.4 8.2 9.5 9.2 8.9 7.6 7.6 8.1 8.3 8.6 8.9 9.4 9.1 9.0 9.0 9.1 9.1 9.2
7.6 7.9 8.1 8.0 7.8 6.6 5.1 3.7 3.4 3.7 3.8 3.9 4.2 4.3 4.1 4.2 4.5 4.6 5.1 5.5 6.2 6.3 6.5 7.0 7.5 8.1 8.2 9.5 9.2 9.0 7.8 8.2 8.4 8.6 8.6 8.6 8.7 8.7 8.7 8.3 8.2 8.4 8.8
8.0 8.1 8.1 7.7 6.5 4.7 3.8 3.3 3.4 3.6 3.6 3.8 4.0 4.0 4.1 4.1 4.6 4.8 5.1 5.7 6.2 6.5 6.6 7.8 7.6 7.9 7.9 9.4 9.2 8.8 7.5 7.9 8.1 8.5 8.7 8.8 8.5 8.6 8.8 7.9 7.5 7.9 8.4
7.7 7.5 7.3 6.1 4.9 4.0 3.6 3.7 3.5 3.6 3.7 3.5 3.6 3.8 4.3 4.4 4.5 5.0 5.6 6.0 7.3 7.6 7.9 7.6 7.4 8.4 8.8 9.3 9.2 8.9 8.0 7.5 7.8 8.2 8.6 9.0 8.9 9.1 8.5 7.8 7.6 7.1 7.4
6.6 6.2 6.0 5.1 3.7 3.4 3.7 3.5 3.5 3.6 3.2 3.4 3.6 4.0 4.5 4.7 4.7 5.3 6.6 7.1 6.9 7.4 7.3 7.9 8.2 9.0 9.2 9.2 9.3 9.1 8.1 7.3 7.4 7.6 7.7 8.3 9.1 9.1 8.6 8.5 8.0 7.7 7.7
6.0 6.6 5.0 3.4 3.2 3.4 4.0 3.5 3.6 3.3 3.5 3.7 4.0 4.5 4.9 4.9 5.4 6.3 6.5 6.3 6.9 6.4 6.2 7.4 8.0 9.0 9.2 9.3 9.2 9.2 9.2 8.9 7.7 7.5 7.5 7.8 8.1 8.8 8.7 8.6 8.6 8.9 8.8
6.4 5.3 3.0 2.7 3.2 3.6 4.1 3.9 3.4 3.5 3.7 4.1 4.5 4.5 4.7 5.2 6.6 5.8 5.6 6.2 6.3 6.5 7.2 8.5 8.3 8.6 9.0 9.0 9.3 9.3 9.2 8.9 7.6 8.2 8.5 9.0 8.8 8.3 8.0 8.1 8.7 8.7 8.0
5.6 3.9 3.2 2.8 2.7 3.3 3.5 3.6 3.7 3.8 4.0 4.2 4.1 4.4 4.3 5.4 5.4 5.4 6.0 5.9 6.5 6.8 8.3 8.2 8.1 8.0 8.4 8.5 8.5 7.9 7.5 8.2 8.3 8.4 7.9 8.4 8.6 8.8 8.1 7.8 8.0 7.6 7.2
4.6 4.3 3.7 3.2 3.0 3.6 3.6 3.8 4.0 4.1 4.4 4.7 4.7 4.5 5.2 4.5 4.4 5.3 5.2 5.2 5.9 8.1 7.6 7.6 7.6 7.4 7.5 7.9 8.7 8.4 8.3 8.1 8.1 8.4 7.7 7.5 7.6 7.3 7.6 7.4 7.7 7.4 6.6
5.1 4.4 3.9 3.5 3.8 4.0 4.0 4.1 4.3 4.4 4.5 5.1 5.2 5.3 5.0 5.2 5.4 4.2 3.5 5.9 6.3 6.6 8.0 9.1 8.3 8.0 8.3 9.0 8.9 9.0 8.8 8.8 9.1 7.6 7.5 7.5 7.7 7.5 7.2 7.4 7.0 7.0 7.3
Wind_Speed
21 20 20 19 18 17 16 16 14 12 8 6 5 4 3 1 2 5 7 10 11 12 13 12 13 14 9 11 12 11 12 10 11 11 12 13 17 14 9 8 11 13 15
22 21 21 19 20 18 17 16 14 13 9 6 3 1 1 0 2 3 7 9 11 13 13 13 9 12 9 12 12 12 10 9 10 10 11 9 14 5 13 12 9 15 10
23 23 22 21 18 19 18 16 15 13 10 7 5 3 2 3 2 4 6 9 13 13 13 14 14 12 9 8 11 11 13 11 9 13 8 8 6 15 9 14 12 15 13
22 21 23 22 20 17 15 16 14 13 10 9 6 4 1 3 3 5 5 8 13 14 14 15 15 14 10 11 10 10 11 11 11 9 10 11 13 11 14 8 12 15 12
20 21 22 20 20 17 14 14 15 13 11 9 6 4 3 2 3 5 8 10 10 13 14 14 14 11 8 11 12 12 12 10 11 10 10 10 10 11 11 17 11 13 10
18 18 19 19 19 15 14 13 15 13 11 9 7 4 1 2 4 6 7 7 7 7 12 13 14 14 11 11 10 12 13 12 12 11 11 10 9 9 10 13 14 15 13
18 18 20 18 17 17 16 14 16 14 12 10 7 5 2 2 6 7 7 9 8 7 9 12 11 9 13 13 12 12 12 13 11 13 11 10 9 9 11 11 13 13 12
16 17 18 17 17 18 17 16 15 13 12 9 7 4 2 2 4 6 7 7 8 8 12 11 14 16 16 14 13 10 10 12 11 15 13 11 10 9 10 10 11 13 12
16 18 18 17 17 17 17 16 15 13 11 8 6 4 2 3 5 8 8 7 9 8 11 14 12 13 14 13 13 9 13 12 12 12 13 12 10 9 10 10 9 11 13
16 16 15 16 15 16 14 14 13 13 10 8 5 2 2 4 5 7 8 10 10 11 12 13 13 14 14 13 13 11 12 13 11 10 13 12 10 11 9 9 9 10 10
16 16 15 15 15 15 14 13 12 12 9 6 4 2 3 4 5 7 8 9 10 11 12 13 13 14 14 14 13 13 14 14 14 13 14 14 13 10 10 9 9 9 9
15 15 15 16 16 15 14 13 11 10 7 5 3 2 3 4 6 7 9 9 11 11 12 13 14 14 14 14 14 13 13 13 14 14 14 13 10 13 12 9 12 10 10
16 15 16 15 15 14 13 12 11 9 6 4 3 2 3 4 6 8 9 10 11 12 13 13 13 14 13 13 13 13 13 13 13 13 13 13 13 12 10 11 10 9 8
16 16 16 15 14 13 13 12 10 8 6 4 2 2 3 5 6 8 9 10 11 12 13 13 13 12 13 13 13 12 13 13 13 14 14 14 13 13 12 11 11 10 9
18 17 16 15 14 14 12 11 9 8 5 3 2 2 3 5 7 8 10 11 11 12 12 12 12 12 11 9 12 13 13 13 14 13 14 13 15 21 18 10 11 12 10
17 17 17 17 16 14 13 11 9 7 5 3 2 2 4 6 7 9 10 11 11 11 11 11 12 12 8 18 20 17 11 12 13 13 12 12 17 16 20 21 20 16 10
18 17 17 15 13 13 12 11 9 7 5 3 0 2 5 7 8 9 10 11 12 12 11 11 11 12 12 20 21 21 10 11 12 12 11 11 10 14 12 16 19 18 18
18 17 14 14 14 13 11 10 8 6 4 2 1 3 5 7 8 9 10 11 10 11 11 11 12 12 11 21 21 21 10 10 12 12 12 12 12 11 12 11 12 11 11
16 15 14 14 14 13 12 10 8 6 4 2 2 4 6 8 8 9 10 10 10 10 10 11 12 12 12 21 21 17 9 10 12 11 11 11 12 16 18 11 11 11 10
16 16 17 15 14 12 11 10 8 6 3 2 3 5 6 8 9 9 10 9 9 10 9 11 12 16 13 19 21 17 7 9 8 10 10 17 15 18 17 10 10 10 9
19 17 16 13 13 11 10 9 7 5 3 2 4 5 6 7 8 9 9 9 9 9 10 12 11 12 13 13 21 21 9 8 8 9 8 8 18 18 16 16 9 10 10
19 16 14 13 11 10 9 9 7 3 1 3 5 5 6 5 6 9 9 9 8 8 9 10 10 9 11 18 18 21 19 18 10 11 9 9 18 18 16 13 16 18 14
15 14 14 14 11 9 8 8 5 2 2 3 5 5 6 6 7 8 8 7 7 7 8 8 9 9 9 9 20 21 24 24 12 10 15 23 20 22 17 19 18 16 7
14 13 13 13 11 9 8 7 4 2 2 3 4 5 6 8 7 7 7 6 6 6 8 9 9 9 10 9 9 10 10 17 13 15 11 15 18 19 14 10 8 5 5
13 12 12 11 11 9 7 5 3 1 2 2 3 4 5 7 7 6 6 6 7 8 8 8 8 9 10 11 21 19 12 11 14 17 9 7 7 7 6 5 6 5 3
13 12 12 12 10 9 7 5 2 1 2 3 4 5 5 5 6 7 8 11 13 17 17 17 13 9 18 25 27 24 24 24 23 9 7 7 6 6 6 6 5 5 8
Wind_Direction
202 197 191 187 183 181 179 179 178 177 177 185 193 196 201 268 338 0 353 343 335 333 327 317 316 314 308 308 306 305 307 307 311 307 305 302 285 274 283 337 321 298 293
202 192 190 188 186 184 182 180 182 178 186 187 169 170 146 359 350 323 332 335 332 326 318 316 311 309 308 306 306 310 308 302 304 309 306 317 315 3 341 305 329 302 298
204 192 193 190 185 187 185 184 181 177 178 172 153 167 180 214 277 337 327 330 323 320 315 314 311 309 309 306 308 304 304 303 304 297 292 306 286 326 298 322 302 324 313
205 194 191 192 188 188 182 183 179 177 171 170 178 184 236 290 330 319 315 316 316 314 312 310 309 308 306 302 302 303 307 301 298 299 291 292 300 302 303 293 312 292 320
200 196 184 190 189 185 179 178 175 174 168 173 178 180 209 290 318 311 312 313 310 313 308 307 305 301 299 299 300 300 301 297 294 293 299 293 282 275 275 292 308 301 296
196 191 178 186 187 179 172 176 173 173 165 166 164 174 202 306 309 310 310 309 312 308 305 306 304 301 297 299 302 298 295 293 290 288 285 285 286 291 288 287 299 296 301
193 184 179 182 181 174 173 178 174 170 167 168 165 171 197 290 295 306 307 309 308 307 306 309 304 303 303 301 298 295 290 292 290 290 290 288 284 285 282 283 288 293 299
187 184 179 181 179 172 178 175 171 165 169 169 166 170 196 279 295 296 302 299 299 300 305 304 304 303 303 301 299 297 295 291 291 291 291 290 289 286 289 290 300 292 294
182 181 179 180 177 174 177 172 169 160 164 162 164 180 227 276 293 296 298 295 299 302 304 305 304 304 305 304 302 296 295 295 294 291 294 293 292 289 280 277 283 292 295
176 175 176 174 170 171 165 160 161 158 157 159 164 186 265 281 290 296 296 298 300 305 304 304 307 307 304 303 303 300 296 297 296 294 295 301 300 298 296 294 289 283 301
170 170 169 165 155 151 153 152 153 149 156 155 157 209 267 287 292 291 296 301 306 305 306 306 307 305 305 306 303 301 301 301 302 301 297 297 300 297 293 289 282 283 283
166 161 154 149 149 152 152 152 150 151 146 146 169 225 274 285 293 300 305 309 307 307 306 308 306 304 306 306 304 304 304 301 301 299 297 295 293 292 290 286 284 286 290
157 152 150 156 157 153 152 149 148 141 142 155 188 240 276 295 304 307 311 309 309 308 308 306 304 305 306 305 305 303 302 301 298 294 290 289 289 289 287 289 290 290 291
161 162 161 160 156 153 152 149 143 143 145 158 205 257 292 307 309 310 308 310 310 307 306 304 304 302 304 304 305 302 304 296 290 289 285 282 280 280 284 284 287 288 293
172 170 165 160 157 153 151 147 142 143 145 160 216 273 308 312 311 308 311 310 309 303 302 303 302 303 302 301 303 298 295 289 289 289 287 285 283 284 283 280 280 283 285
176 172 166 161 159 155 154 148 144 142 149 163 214 307 318 315 313 312 312 310 306 302 305 304 303 303 302 301 301 303 292 295 294 294 292 293 295 293 293 293 292 290 293
173 170 167 160 153 154 148 147 141 140 147 155 236 327 319 316 315 314 310 309 307 307 307 306 306 303 302 305 306 308 301 295 296 294 297 298 298 299 292 293 293 292 289
169 165 157 152 146 141 137 133 136 139 138 128 346 328 323 315 313 312 308 310 309 309 309 307 306 307 308 308 311 311 306 293 291 288 287 287 288 285 286 288 287 288 290
157 150 146 139 138 140 138 134 136 134 124 106 344 334 320 310 312 311 311 310 312 310 310 308 312 311 308 310 310 311 299 290 291 287 284 281 280 282 286 282 280 284 281
139 137 134 137 138 136 136 135 130 124 112 37 338 318 310 308 310 308 309 310 308 310 316 314 314 308 306 305 312 316 305 294 294 291 286 285 281 279 281 277 279 274 278
127 127 134 133 131 133 135 125 123 110 71 340 313 310 310 309 307 305 308 315 317 318 321 314 310 306 305 310 316 317 310 297 292 288 286 285 291 289 287 281 278 276 286
130 133 125 124 125 130 128 121 111 95 20 321 310 316 317 312 308 312 320 325 322 323 319 312 307 308 312 315 316 316 318 312 306 296 290 276 283 288 286 282 276 278 283
129 126 124 123 118 116 117 118 108 87 356 321 322 326 322 324 325 329 323 327 330 326 318 314 311 314 316 311 314 317 313 310 311 304 296 295 285 274 272 269 269 267 267
127 126 126 123 119 115 106 102 99 56 331 333 331 331 332 337 342 329 334 330 324 319 312 313 314 314 315 313 315 310 317 318 315 311 300 296 290 276 265 269 276 259 252
129 128 123 120 120 120 110 103 91 40 342 329 354 339 344 348 330 336 331 315 310 313 313 308 308 314 313 312 316 324 326 319 315 317 302 292 278 260 246 240 240 236 242
126 120 116 120 121 117 112 106 91 33 354 2 8 357 348 346 338 332 323 324 321 324 324 325 322 314 313 320 324 329 327 327 327 322 308 304 300 288 251 223 228 241 245